Year,Month,Day,Hour,Minute,Value (Times are PST for temperature in C)
2009,06,01,00,00,13.60
2009,06,01,00,01,13.60
2009,06,01,00,02,13.60
2009,06,01,00,03,13.50
2009,06,01,00,04,13.40
2009,06,01,00,05,13.30
2009,06,01,00,06,13.30
2009,06,01,00,07,13.30
2009,06,01,00,08,13.30
2009,06,01,00,09,13.30
2009,06,01,00,10,13.20
2009,06,01,00,11,13.20
2009,06,01,00,12,13.20
2009,06,01,00,13,13.10
2009,06,01,00,14,13.10
2009,06,01,00,15,13.10
2009,06,01,00,16,13.00
2009,06,01,00,17,13.00
2009,06,01,00,18,12.90
2009,06,01,00,19,12.90
2009,06,01,00,20,12.90
2009,06,01,00,21,12.90
2009,06,01,00,22,12.90
2009,06,01,00,23,12.80
2009,06,01,00,24,12.80
2009,06,01,00,25,12.80
2009,06,01,00,26,12.80
2009,06,01,00,27,12.80
2009,06,01,00,28,12.70
2009,06,01,00,29,12.70
2009,06,01,00,30,12.70
2009,06,01,00,31,12.70
2009,06,01,00,32,12.70
2009,06,01,00,33,12.60
2009,06,01,00,34,12.60
2009,06,01,00,35,12.60
2009,06,01,00,36,12.60
2009,06,01,00,37,12.60
2009,06,01,00,38,12.50
2009,06,01,00,39,12.50
2009,06,01,00,40,12.50
2009,06,01,00,41,12.50
2009,06,01,00,42,12.50
2009,06,01,00,43,12.40
2009,06,01,00,44,12.40
2009,06,01,00,45,12.40
2009,06,01,00,46,12.40
2009,06,01,00,47,12.40
2009,06,01,00,48,12.40
2009,06,01,00,49,12.40
2009,06,01,00,50,12.40
2009,06,01,00,51,12.40
2009,06,01,00,52,12.40
2009,06,01,00,53,12.30
2009,06,01,00,54,12.30
2009,06,01,00,55,12.30
2009,06,01,00,56,12.30
2009,06,01,00,57,12.30
2009,06,01,00,58,12.30
2009,06,01,00,59,12.30
2009,06,01,01,00,12.30
2009,06,01,01,01,12.20
2009,06,01,01,02,12.20
2009,06,01,01,03,12.20
2009,06,01,01,04,12.30
2009,06,01,01,05,12.30
2009,06,01,01,06,12.20
2009,06,01,01,07,12.20
2009,06,01,01,08,12.20
2009,06,01,01,09,12.30
2009,06,01,01,10,12.30
2009,06,01,01,11,12.30
2009,06,01,01,12,12.30
2009,06,01,01,13,12.30
2009,06,01,01,14,12.30
2009,06,01,01,15,12.30
2009,06,01,01,16,12.30
2009,06,01,01,17,12.30
2009,06,01,01,18,12.30
2009,06,01,01,19,12.20
2009,06,01,01,20,12.20
2009,06,01,01,21,12.20
2009,06,01,01,22,12.20
2009,06,01,01,23,12.10
2009,06,01,01,24,12.10
2009,06,01,01,25,12.10
2009,06,01,01,26,12.10
2009,06,01,01,27,12.10
2009,06,01,01,28,12.00
2009,06,01,01,29,12.10
2009,06,01,01,30,12.10
2009,06,01,01,31,12.20
2009,06,01,01,32,12.20
2009,06,01,01,33,12.20
2009,06,01,01,34,12.30
2009,06,01,01,35,12.30
2009,06,01,01,36,12.30
2009,06,01,01,37,12.30
2009,06,01,01,38,12.30
2009,06,01,01,39,12.30
2009,06,01,01,40,12.30
2009,06,01,01,41,12.30
2009,06,01,01,42,12.20
2009,06,01,01,43,12.20
2009,06,01,01,44,12.20
2009,06,01,01,45,12.20
2009,06,01,01,46,12.20
2009,06,01,01,47,12.20
2009,06,01,01,48,12.10
2009,06,01,01,49,12.10
2009,06,01,01,50,12.10
2009,06,01,01,51,12.10
2009,06,01,01,52,12.10
2009,06,01,01,53,12.00
2009,06,01,01,54,12.00
2009,06,01,01,55,11.90
2009,06,01,01,56,11.90
2009,06,01,01,57,11.90
2009,06,01,01,58,11.90
2009,06,01,01,59,12.00
2009,06,01,02,00,12.10
2009,06,01,02,01,12.20
2009,06,01,02,02,12.20
2009,06,01,02,03,12.20
2009,06,01,02,04,12.30
2009,06,01,02,05,12.30
2009,06,01,02,06,12.30
2009,06,01,02,07,12.30
2009,06,01,02,08,12.30
2009,06,01,02,09,12.30
2009,06,01,02,10,12.30
2009,06,01,02,11,12.20
2009,06,01,02,12,12.20
2009,06,01,02,13,12.20
2009,06,01,02,14,12.10
2009,06,01,02,15,12.10
2009,06,01,02,16,12.00
2009,06,01,02,17,12.00
2009,06,01,02,18,11.90
2009,06,01,02,19,11.90
2009,06,01,02,20,11.90
2009,06,01,02,21,11.80
2009,06,01,02,22,11.80
2009,06,01,02,23,11.80
2009,06,01,02,24,11.80
2009,06,01,02,25,11.80
2009,06,01,02,26,11.80
2009,06,01,02,27,11.80
2009,06,01,02,28,11.80
2009,06,01,02,29,11.80
2009,06,01,02,30,11.80
2009,06,01,02,31,11.80
2009,06,01,02,32,11.70
2009,06,01,02,33,11.70
2009,06,01,02,34,11.70
2009,06,01,02,35,11.60
2009,06,01,02,36,11.60
2009,06,01,02,37,11.60
2009,06,01,02,38,11.60
2009,06,01,02,39,11.60
2009,06,01,02,40,11.50
2009,06,01,02,41,11.50
2009,06,01,02,42,11.50
2009,06,01,02,43,11.50
2009,06,01,02,44,11.50
2009,06,01,02,45,11.50
2009,06,01,02,46,11.60
2009,06,01,02,47,11.60
2009,06,01,02,48,11.60
2009,06,01,02,49,11.60
2009,06,01,02,50,11.60
2009,06,01,02,51,11.60
2009,06,01,02,52,11.60
2009,06,01,02,53,11.60
2009,06,01,02,54,11.50
2009,06,01,02,55,11.50
2009,06,01,02,56,11.50
2009,06,01,02,57,11.50
2009,06,01,02,58,11.50
2009,06,01,02,59,11.50
2009,06,01,03,00,11.50
2009,06,01,03,01,11.40
2009,06,01,03,02,11.40
2009,06,01,03,03,11.40
2009,06,01,03,04,11.40
2009,06,01,03,05,11.40
2009,06,01,03,06,11.40
2009,06,01,03,07,11.30
2009,06,01,03,08,11.30
2009,06,01,03,09,11.30
2009,06,01,03,10,11.30
2009,06,01,03,11,11.30
2009,06,01,03,12,11.30
2009,06,01,03,13,11.30
2009,06,01,03,14,11.40
2009,06,01,03,15,11.40
2009,06,01,03,16,11.40
2009,06,01,03,17,11.40
2009,06,01,03,18,11.40
2009,06,01,03,19,11.40
2009,06,01,03,20,11.40
2009,06,01,03,21,11.40
2009,06,01,03,22,11.40
2009,06,01,03,23,11.40
2009,06,01,03,24,11.40
2009,06,01,03,25,11.30
2009,06,01,03,26,11.30
2009,06,01,03,27,11.30
2009,06,01,03,28,11.30
2009,06,01,03,29,11.30
2009,06,01,03,30,11.30
2009,06,01,03,31,11.30
2009,06,01,03,32,11.20
2009,06,01,03,33,11.20
2009,06,01,03,34,11.20
2009,06,01,03,35,11.20
2009,06,01,03,36,11.20
2009,06,01,03,37,11.20
2009,06,01,03,38,11.20
2009,06,01,03,39,11.10
2009,06,01,03,40,11.10
2009,06,01,03,41,11.10
2009,06,01,03,42,11.10
2009,06,01,03,43,11.10
2009,06,01,03,44,11.00
2009,06,01,03,45,11.00
2009,06,01,03,46,11.00
2009,06,01,03,47,11.00
2009,06,01,03,48,11.00
2009,06,01,03,49,11.00
2009,06,01,03,50,11.00
2009,06,01,03,51,11.00
2009,06,01,03,52,11.00
2009,06,01,03,53,11.00
2009,06,01,03,54,11.00
2009,06,01,03,55,11.00
2009,06,01,03,56,11.00
2009,06,01,03,57,11.00
2009,06,01,03,58,10.90
2009,06,01,03,59,10.90
2009,06,01,04,00,10.90
2009,06,01,04,01,10.90
2009,06,01,04,02,10.90
2009,06,01,04,03,10.90
2009,06,01,04,04,10.90
2009,06,01,04,05,10.90
2009,06,01,04,06,10.90
2009,06,01,04,07,10.90
2009,06,01,04,08,10.90
2009,06,01,04,09,10.90
2009,06,01,04,10,10.90
2009,06,01,04,11,10.90
2009,06,01,04,12,10.90
2009,06,01,04,13,10.90
2009,06,01,04,14,10.90
2009,06,01,04,15,10.90
2009,06,01,04,16,10.90
2009,06,01,04,17,10.90
2009,06,01,04,18,10.90
2009,06,01,04,19,11.00
2009,06,01,04,20,11.20
2009,06,01,04,21,11.30
2009,06,01,04,22,11.40
2009,06,01,04,23,11.50
2009,06,01,04,24,11.50
2009,06,01,04,25,11.60
2009,06,01,04,26,11.60
2009,06,01,04,27,11.70
2009,06,01,04,28,11.70
2009,06,01,04,29,11.70
2009,06,01,04,30,11.70
2009,06,01,04,31,11.80
2009,06,01,04,32,11.80
2009,06,01,04,33,11.80
2009,06,01,04,34,11.90
2009,06,01,04,35,11.90
2009,06,01,04,36,11.90
2009,06,01,04,37,11.90
2009,06,01,04,38,11.80
2009,06,01,04,39,11.80
2009,06,01,04,40,11.80
2009,06,01,04,41,11.80
2009,06,01,04,42,11.80
2009,06,01,04,43,11.80
2009,06,01,04,44,11.70
2009,06,01,04,45,11.70
2009,06,01,04,46,11.70
2009,06,01,04,47,11.70
2009,06,01,04,48,11.70
2009,06,01,04,49,11.60
2009,06,01,04,50,11.60
2009,06,01,04,51,11.60
2009,06,01,04,52,11.60
2009,06,01,04,53,11.60
2009,06,01,04,54,11.60
2009,06,01,04,55,11.60
2009,06,01,04,56,11.70
2009,06,01,04,57,11.70
2009,06,01,04,58,11.70
2009,06,01,04,59,11.70
2009,06,01,05,00,11.80
2009,06,01,05,01,11.80
2009,06,01,05,02,11.80
2009,06,01,05,03,11.90
2009,06,01,05,04,11.90
2009,06,01,05,05,12.00
2009,06,01,05,06,12.00
2009,06,01,05,07,12.00
2009,06,01,05,08,12.00
2009,06,01,05,09,12.10
2009,06,01,05,10,12.10
2009,06,01,05,11,12.10
2009,06,01,05,12,12.00
2009,06,01,05,13,12.00
2009,06,01,05,14,12.00
2009,06,01,05,15,12.00
2009,06,01,05,16,12.00
2009,06,01,05,17,11.90
2009,06,01,05,18,11.90
2009,06,01,05,19,11.90
2009,06,01,05,20,11.90
2009,06,01,05,21,11.90
2009,06,01,05,22,11.90
2009,06,01,05,23,11.80
2009,06,01,05,24,11.80
2009,06,01,05,25,11.80
2009,06,01,05,26,11.80
2009,06,01,05,27,11.80
2009,06,01,05,28,11.80
2009,06,01,05,29,11.80
2009,06,01,05,30,11.80
2009,06,01,05,31,11.80
2009,06,01,05,32,11.80
2009,06,01,05,33,11.80
2009,06,01,05,34,11.80
2009,06,01,05,35,11.80
2009,06,01,05,36,11.80
2009,06,01,05,37,11.80
2009,06,01,05,38,11.90
2009,06,01,05,39,11.90
2009,06,01,05,40,11.90
2009,06,01,05,41,11.90
2009,06,01,05,42,11.90
2009,06,01,05,43,11.90
2009,06,01,05,44,11.80
2009,06,01,05,45,11.80
2009,06,01,05,46,11.80
2009,06,01,05,47,11.80
2009,06,01,05,48,11.80
2009,06,01,05,49,11.80
2009,06,01,05,50,11.80
2009,06,01,05,51,11.80
2009,06,01,05,52,11.70
2009,06,01,05,53,11.70
2009,06,01,05,54,11.70
2009,06,01,05,55,11.70
2009,06,01,05,56,11.80
2009,06,01,05,57,11.80
2009,06,01,05,58,11.80
2009,06,01,05,59,11.80
2009,06,01,06,00,11.80
2009,06,01,06,01,11.80
2009,06,01,06,02,11.80
2009,06,01,06,03,11.80
2009,06,01,06,04,11.90
2009,06,01,06,05,11.90
2009,06,01,06,06,11.90
2009,06,01,06,07,11.90
2009,06,01,06,08,12.00
2009,06,01,06,09,12.00
2009,06,01,06,10,12.10
2009,06,01,06,11,12.10
2009,06,01,06,12,12.20
2009,06,01,06,13,12.30
2009,06,01,06,14,12.30
2009,06,01,06,15,12.40
2009,06,01,06,16,12.40
2009,06,01,06,17,12.40
2009,06,01,06,18,12.50
2009,06,01,06,19,12.60
2009,06,01,06,20,12.60
2009,06,01,06,21,12.70
2009,06,01,06,22,12.70
2009,06,01,06,23,12.80
2009,06,01,06,24,12.90
2009,06,01,06,25,13.00
2009,06,01,06,26,13.10
2009,06,01,06,27,13.20
2009,06,01,06,28,13.30
2009,06,01,06,29,13.30
2009,06,01,06,30,13.40
2009,06,01,06,31,13.50
2009,06,01,06,32,13.60
2009,06,01,06,33,13.70
2009,06,01,06,34,13.80
2009,06,01,06,35,13.90
2009,06,01,06,36,13.90
2009,06,01,06,37,13.90
2009,06,01,06,38,14.00
2009,06,01,06,39,14.00
2009,06,01,06,40,14.00
2009,06,01,06,41,14.00
2009,06,01,06,42,14.00
2009,06,01,06,43,14.10
2009,06,01,06,44,14.20
2009,06,01,06,45,14.20
2009,06,01,06,46,14.30
2009,06,01,06,47,14.40
2009,06,01,06,48,14.50
2009,06,01,06,49,14.60
2009,06,01,06,50,14.70
2009,06,01,06,51,14.90
2009,06,01,06,52,15.00
2009,06,01,06,53,15.00
2009,06,01,06,54,15.20
2009,06,01,06,55,15.30
2009,06,01,06,56,15.40
2009,06,01,06,57,15.60
2009,06,01,06,58,15.70
2009,06,01,06,59,15.80
2009,06,01,07,00,15.90
2009,06,01,07,01,16.00
2009,06,01,07,02,16.10
2009,06,01,07,03,16.10
2009,06,01,07,04,16.10
2009,06,01,07,05,16.20
2009,06,01,07,06,16.20
2009,06,01,07,07,16.30
2009,06,01,07,08,16.30
2009,06,01,07,09,16.40
2009,06,01,07,10,16.50
2009,06,01,07,11,16.60
2009,06,01,07,12,16.70
2009,06,01,07,13,16.70
2009,06,01,07,14,16.70
2009,06,01,07,15,16.70
2009,06,01,07,16,16.70
2009,06,01,07,17,16.70
2009,06,01,07,18,16.70
2009,06,01,07,19,16.70
2009,06,01,07,20,16.80
2009,06,01,07,21,16.90
2009,06,01,07,22,17.00
2009,06,01,07,23,17.10
2009,06,01,07,24,17.20
2009,06,01,07,25,17.30
2009,06,01,07,26,17.40
2009,06,01,07,27,17.50
2009,06,01,07,28,17.70
2009,06,01,07,29,17.80
2009,06,01,07,30,17.90
2009,06,01,07,31,18.10
2009,06,01,07,32,18.20
2009,06,01,07,33,18.30
2009,06,01,07,34,18.40
2009,06,01,07,35,18.50
2009,06,01,07,36,18.60
2009,06,01,07,37,18.80
2009,06,01,07,38,18.90
2009,06,01,07,39,19.00
2009,06,01,07,40,19.10
2009,06,01,07,41,19.20
2009,06,01,07,42,19.30
2009,06,01,07,43,19.40
2009,06,01,07,44,19.50
2009,06,01,07,45,19.70
2009,06,01,07,46,19.90
2009,06,01,07,47,19.90
2009,06,01,07,48,20.10
2009,06,01,07,49,20.20
2009,06,01,07,50,20.30
2009,06,01,07,51,20.30
2009,06,01,07,52,20.20
2009,06,01,07,53,20.20
2009,06,01,07,54,20.20
2009,06,01,07,55,20.20
2009,06,01,07,56,20.20
2009,06,01,07,57,20.40
2009,06,01,07,58,20.50
2009,06,01,07,59,20.60
2009,06,01,08,00,20.60
2009,06,01,08,01,20.60
2009,06,01,08,02,20.60
2009,06,01,08,03,20.60
2009,06,01,08,04,20.60
2009,06,01,08,05,20.70
2009,06,01,08,06,20.70
2009,06,01,08,07,20.80
2009,06,01,08,08,20.80
2009,06,01,08,09,20.80
2009,06,01,08,10,20.90
2009,06,01,08,11,21.00
2009,06,01,08,12,21.00
2009,06,01,08,13,21.10
2009,06,01,08,14,21.10
2009,06,01,08,15,21.10
2009,06,01,08,16,20.90
2009,06,01,08,17,20.90
2009,06,01,08,18,20.80
2009,06,01,08,19,20.90
2009,06,01,08,20,21.00
2009,06,01,08,21,21.10
2009,06,01,08,22,21.00
2009,06,01,08,23,21.00
2009,06,01,08,24,21.00
2009,06,01,08,25,20.90
2009,06,01,08,26,20.90
2009,06,01,08,27,21.00
2009,06,01,08,28,21.00
2009,06,01,08,29,21.00
2009,06,01,08,30,21.10
2009,06,01,08,31,21.20
2009,06,01,08,32,21.20
2009,06,01,08,33,21.30
2009,06,01,08,34,21.30
2009,06,01,08,35,21.30
2009,06,01,08,36,21.30
2009,06,01,08,37,21.30
2009,06,01,08,38,21.30
2009,06,01,08,39,21.40
2009,06,01,08,40,21.50
2009,06,01,08,41,21.70
2009,06,01,08,42,21.80
2009,06,01,08,43,21.80
2009,06,01,08,44,21.80
2009,06,01,08,45,21.80
2009,06,01,08,46,21.80
2009,06,01,08,47,21.80
2009,06,01,08,48,21.90
2009,06,01,08,49,22.00
2009,06,01,08,50,22.10
2009,06,01,08,51,22.20
2009,06,01,08,52,22.30
2009,06,01,08,53,22.40
2009,06,01,08,54,22.40
2009,06,01,08,55,22.40
2009,06,01,08,56,22.30
2009,06,01,08,57,22.20
2009,06,01,08,58,22.10
2009,06,01,08,59,22.10
2009,06,01,09,00,22.10
2009,06,01,09,01,22.10
2009,06,01,09,02,22.10
2009,06,01,09,03,22.20
2009,06,01,09,04,22.20
2009,06,01,09,05,22.40
2009,06,01,09,06,22.50
2009,06,01,09,07,22.50
2009,06,01,09,08,22.60
2009,06,01,09,09,22.60
2009,06,01,09,10,22.60
2009,06,01,09,11,22.70
2009,06,01,09,12,22.60
2009,06,01,09,13,22.50
2009,06,01,09,14,22.40
2009,06,01,09,15,22.30
2009,06,01,09,16,22.30
2009,06,01,09,17,22.30
2009,06,01,09,18,22.30
2009,06,01,09,19,22.30
2009,06,01,09,20,22.30
2009,06,01,09,21,22.40
2009,06,01,09,22,22.50
2009,06,01,09,23,22.60
2009,06,01,09,24,22.70
2009,06,01,09,25,22.80
2009,06,01,09,26,22.80
2009,06,01,09,27,22.80
2009,06,01,09,28,22.80
2009,06,01,09,29,22.70
2009,06,01,09,30,22.60
2009,06,01,09,31,22.40
2009,06,01,09,32,22.30
2009,06,01,09,33,22.30
2009,06,01,09,34,22.30
2009,06,01,09,35,22.30
2009,06,01,09,36,22.40
2009,06,01,09,37,22.40
2009,06,01,09,38,22.40
2009,06,01,09,39,22.40
2009,06,01,09,40,22.40
2009,06,01,09,41,22.40
2009,06,01,09,42,22.50
2009,06,01,09,43,22.40
2009,06,01,09,44,22.40
2009,06,01,09,45,22.40
2009,06,01,09,46,22.40
2009,06,01,09,47,22.40
2009,06,01,09,48,22.50
2009,06,01,09,49,22.50
2009,06,01,09,50,22.60
2009,06,01,09,51,22.60
2009,06,01,09,52,22.70
2009,06,01,09,53,22.60
2009,06,01,09,54,22.70
2009,06,01,09,55,22.70
2009,06,01,09,56,22.70
2009,06,01,09,57,22.60
2009,06,01,09,58,22.50
2009,06,01,09,59,22.40
2009,06,01,10,00,22.30
2009,06,01,10,01,22.30
2009,06,01,10,02,22.30
2009,06,01,10,03,22.30
2009,06,01,10,04,22.30
2009,06,01,10,05,22.40
2009,06,01,10,06,22.50
2009,06,01,10,07,22.60
2009,06,01,10,08,22.70
2009,06,01,10,09,22.80
2009,06,01,10,10,23.00
2009,06,01,10,11,23.20
2009,06,01,10,12,23.30
2009,06,01,10,13,23.50
2009,06,01,10,14,23.70
2009,06,01,10,15,23.90
2009,06,01,10,16,23.90
2009,06,01,10,17,23.90
2009,06,01,10,18,23.90
2009,06,01,10,19,23.90
2009,06,01,10,20,24.10
2009,06,01,10,21,24.00
2009,06,01,10,22,24.10
2009,06,01,10,23,24.10
2009,06,01,10,24,24.10
2009,06,01,10,25,24.10
2009,06,01,10,26,24.10
2009,06,01,10,27,24.00
2009,06,01,10,28,23.90
2009,06,01,10,29,23.80
2009,06,01,10,30,23.70
2009,06,01,10,31,23.60
2009,06,01,10,32,23.50
2009,06,01,10,33,23.50
2009,06,01,10,34,23.50
2009,06,01,10,35,23.50
2009,06,01,10,36,23.50
2009,06,01,10,37,23.50
2009,06,01,10,38,23.50
2009,06,01,10,39,23.60
2009,06,01,10,40,23.50
2009,06,01,10,41,23.50
2009,06,01,10,42,23.50
2009,06,01,10,43,23.50
2009,06,01,10,44,23.50
2009,06,01,10,45,23.60
2009,06,01,10,46,23.60
2009,06,01,10,47,23.60
2009,06,01,10,48,23.60
2009,06,01,10,49,23.60
2009,06,01,10,50,23.60
2009,06,01,10,51,23.60
2009,06,01,10,52,23.60
2009,06,01,10,53,23.60
2009,06,01,10,54,23.60
2009,06,01,10,55,23.60
2009,06,01,10,56,23.70
2009,06,01,10,57,23.70
2009,06,01,10,58,23.70
2009,06,01,10,59,23.70
2009,06,01,11,00,23.70
2009,06,01,11,01,23.80
2009,06,01,11,02,23.90
2009,06,01,11,03,23.90
2009,06,01,11,04,24.00
2009,06,01,11,05,24.10
2009,06,01,11,06,24.20
2009,06,01,11,07,24.30
2009,06,01,11,08,24.40
2009,06,01,11,09,24.40
2009,06,01,11,10,24.40
2009,06,01,11,11,24.40
2009,06,01,11,12,24.40
2009,06,01,11,13,24.40
2009,06,01,11,14,24.40
2009,06,01,11,15,24.40
2009,06,01,11,16,24.30
2009,06,01,11,17,24.30
2009,06,01,11,18,24.20
2009,06,01,11,19,24.20
2009,06,01,11,20,24.10
2009,06,01,11,21,24.10
2009,06,01,11,22,24.20
2009,06,01,11,23,24.20
2009,06,01,11,24,24.20
2009,06,01,11,25,24.20
2009,06,01,11,26,24.30
2009,06,01,11,27,24.40
2009,06,01,11,28,24.40
2009,06,01,11,29,24.40
2009,06,01,11,30,24.30
2009,06,01,11,31,24.30
2009,06,01,11,32,24.30
2009,06,01,11,33,24.30
2009,06,01,11,34,24.40
2009,06,01,11,35,24.50
2009,06,01,11,36,24.50
2009,06,01,11,37,24.60
2009,06,01,11,38,24.60
2009,06,01,11,39,24.50
2009,06,01,11,40,24.50
2009,06,01,11,41,24.50
2009,06,01,11,42,24.60
2009,06,01,11,43,24.60
2009,06,01,11,44,24.70
2009,06,01,11,45,24.70
2009,06,01,11,46,24.80
2009,06,01,11,47,24.70
2009,06,01,11,48,24.70
2009,06,01,11,49,24.70
2009,06,01,11,50,24.70
2009,06,01,11,51,24.70
2009,06,01,11,52,24.70
2009,06,01,11,53,24.70
2009,06,01,11,54,24.60
2009,06,01,11,55,24.60
2009,06,01,11,56,24.50
2009,06,01,11,57,24.50
2009,06,01,11,58,24.40
2009,06,01,11,59,24.40
2009,06,01,12,00,24.40
2009,06,01,12,01,24.50
2009,06,01,12,02,24.60
2009,06,01,12,03,24.60
2009,06,01,12,04,24.80
2009,06,01,12,05,24.90
2009,06,01,12,06,25.10
2009,06,01,12,07,25.20
2009,06,01,12,08,25.30
2009,06,01,12,09,25.40
2009,06,01,12,10,25.40
2009,06,01,12,11,25.40
2009,06,01,12,12,25.30
2009,06,01,12,13,25.30
2009,06,01,12,14,25.40
2009,06,01,12,15,25.40
2009,06,01,12,16,25.40
2009,06,01,12,17,25.50
2009,06,01,12,18,25.60
2009,06,01,12,19,25.50
2009,06,01,12,20,25.50
2009,06,01,12,21,25.60
2009,06,01,12,22,25.60
2009,06,01,12,23,25.60
2009,06,01,12,24,25.60
2009,06,01,12,25,25.60
2009,06,01,12,26,25.70
2009,06,01,12,27,25.80
2009,06,01,12,28,25.80
2009,06,01,12,29,25.90
2009,06,01,12,30,26.00
2009,06,01,12,31,26.10
2009,06,01,12,32,26.10
2009,06,01,12,33,26.10
2009,06,01,12,34,26.10
2009,06,01,12,35,26.20
2009,06,01,12,36,26.20
2009,06,01,12,37,26.30
2009,06,01,12,38,26.30
2009,06,01,12,39,26.20
2009,06,01,12,40,26.20
2009,06,01,12,41,26.20
2009,06,01,12,42,26.10
2009,06,01,12,43,26.00
2009,06,01,12,44,26.00
2009,06,01,12,45,25.90
2009,06,01,12,46,25.80
2009,06,01,12,47,25.80
2009,06,01,12,48,25.80
2009,06,01,12,49,25.90
2009,06,01,12,50,25.80
2009,06,01,12,51,25.70
2009,06,01,12,52,25.70
2009,06,01,12,53,25.70
2009,06,01,12,54,25.70
2009,06,01,12,55,25.70
2009,06,01,12,56,25.70
2009,06,01,12,57,25.70
2009,06,01,12,58,25.70
2009,06,01,12,59,25.70
2009,06,01,13,00,25.70
2009,06,01,13,01,25.70
2009,06,01,13,02,25.80
2009,06,01,13,03,25.70
2009,06,01,13,04,25.70
2009,06,01,13,05,25.70
2009,06,01,13,06,25.80
2009,06,01,13,07,25.90
2009,06,01,13,08,25.90
2009,06,01,13,09,26.00
2009,06,01,13,10,26.10
2009,06,01,13,11,26.10
2009,06,01,13,12,26.00
2009,06,01,13,13,26.00
2009,06,01,13,14,26.00
2009,06,01,13,15,25.90
2009,06,01,13,16,25.90
2009,06,01,13,17,25.90
2009,06,01,13,18,25.90
2009,06,01,13,19,26.00
2009,06,01,13,20,26.00
2009,06,01,13,21,26.10
2009,06,01,13,22,26.20
2009,06,01,13,23,26.20
2009,06,01,13,24,26.30
2009,06,01,13,25,26.20
2009,06,01,13,26,26.20
2009,06,01,13,27,26.20
2009,06,01,13,28,26.20
2009,06,01,13,29,26.20
2009,06,01,13,30,26.30
2009,06,01,13,31,26.40
2009,06,01,13,32,26.50
2009,06,01,13,33,26.50
2009,06,01,13,34,26.50
2009,06,01,13,35,26.60
2009,06,01,13,36,26.60
2009,06,01,13,37,26.70
2009,06,01,13,38,26.60
2009,06,01,13,39,26.50
2009,06,01,13,40,26.30
2009,06,01,13,41,26.30
2009,06,01,13,42,26.20
2009,06,01,13,43,26.10
2009,06,01,13,44,26.10
2009,06,01,13,45,26.10
2009,06,01,13,46,26.20
2009,06,01,13,47,26.20
2009,06,01,13,48,26.30
2009,06,01,13,49,26.40
2009,06,01,13,50,26.50
2009,06,01,13,51,26.50
2009,06,01,13,52,26.50
2009,06,01,13,53,26.50
2009,06,01,13,54,26.60
2009,06,01,13,55,26.70
2009,06,01,13,56,26.70
2009,06,01,13,57,26.70
2009,06,01,13,58,26.60
2009,06,01,13,59,26.60
2009,06,01,14,00,26.60
2009,06,01,14,01,26.60
2009,06,01,14,02,26.50
2009,06,01,14,03,26.60
2009,06,01,14,04,26.60
2009,06,01,14,05,26.50
2009,06,01,14,06,26.50
2009,06,01,14,07,26.40
2009,06,01,14,08,26.30
2009,06,01,14,09,26.30
2009,06,01,14,10,26.20
2009,06,01,14,11,26.20
2009,06,01,14,12,26.10
2009,06,01,14,13,26.20
2009,06,01,14,14,26.20
2009,06,01,14,15,26.20
2009,06,01,14,16,26.30
2009,06,01,14,17,26.30
2009,06,01,14,18,26.30
2009,06,01,14,19,26.30
2009,06,01,14,20,26.20
2009,06,01,14,21,26.20
2009,06,01,14,22,26.20
2009,06,01,14,23,26.30
2009,06,01,14,24,26.30
2009,06,01,14,25,26.30
2009,06,01,14,26,26.30
2009,06,01,14,27,26.30
2009,06,01,14,28,26.40
2009,06,01,14,29,26.40
2009,06,01,14,30,26.40
2009,06,01,14,31,26.50
2009,06,01,14,32,26.50
2009,06,01,14,33,26.60
2009,06,01,14,34,26.60
2009,06,01,14,35,26.60
2009,06,01,14,36,26.60
2009,06,01,14,37,26.60
2009,06,01,14,38,26.60
2009,06,01,14,39,26.60
2009,06,01,14,40,26.60
2009,06,01,14,41,26.70
2009,06,01,14,42,26.70
2009,06,01,14,43,26.80
2009,06,01,14,44,26.90
2009,06,01,14,45,27.00
2009,06,01,14,46,27.10
2009,06,01,14,47,27.20
2009,06,01,14,48,27.30
2009,06,01,14,49,27.40
2009,06,01,14,50,27.40
2009,06,01,14,51,27.40
2009,06,01,14,52,27.30
2009,06,01,14,53,27.20
2009,06,01,14,54,27.10
2009,06,01,14,55,26.90
2009,06,01,14,56,26.90
2009,06,01,14,57,26.90
2009,06,01,14,58,26.90
2009,06,01,14,59,26.90
2009,06,01,15,00,26.80
2009,06,01,15,01,26.80
2009,06,01,15,02,26.80
2009,06,01,15,03,26.90
2009,06,01,15,04,27.00
2009,06,01,15,05,27.00
2009,06,01,15,06,27.10
2009,06,01,15,07,27.00
2009,06,01,15,08,26.90
2009,06,01,15,09,26.90
2009,06,01,15,10,26.90
2009,06,01,15,11,26.90
2009,06,01,15,12,26.90
2009,06,01,15,13,26.90
2009,06,01,15,14,26.90
2009,06,01,15,15,27.00
2009,06,01,15,16,27.00
2009,06,01,15,17,26.90
2009,06,01,15,18,27.00
2009,06,01,15,19,27.10
2009,06,01,15,20,27.20
2009,06,01,15,21,27.30
2009,06,01,15,22,27.30
2009,06,01,15,23,27.40
2009,06,01,15,24,27.40
2009,06,01,15,25,27.40
2009,06,01,15,26,27.30
2009,06,01,15,27,27.30
2009,06,01,15,28,27.30
2009,06,01,15,29,27.30
2009,06,01,15,30,27.30
2009,06,01,15,31,27.40
2009,06,01,15,32,27.40
2009,06,01,15,33,27.40
2009,06,01,15,34,27.30
2009,06,01,15,35,27.30
2009,06,01,15,36,27.30
2009,06,01,15,37,27.30
2009,06,01,15,38,27.20
2009,06,01,15,39,27.20
2009,06,01,15,40,27.30
2009,06,01,15,41,27.40
2009,06,01,15,42,27.50
2009,06,01,15,43,27.50
2009,06,01,15,44,27.60
2009,06,01,15,45,27.60
2009,06,01,15,46,27.60
2009,06,01,15,47,27.70
2009,06,01,15,48,27.70
2009,06,01,15,49,27.80
2009,06,01,15,50,27.80
2009,06,01,15,51,27.70
2009,06,01,15,52,27.70
2009,06,01,15,53,27.70
2009,06,01,15,54,27.80
2009,06,01,15,55,27.80
2009,06,01,15,56,27.90
2009,06,01,15,57,27.90
2009,06,01,15,58,28.00
2009,06,01,15,59,28.10
2009,06,01,16,00,28.20
2009,06,01,16,01,28.30
2009,06,01,16,02,28.40
2009,06,01,16,03,28.40
2009,06,01,16,04,28.40
2009,06,01,16,05,28.40
2009,06,01,16,06,28.50
2009,06,01,16,07,28.50
2009,06,01,16,08,28.50
2009,06,01,16,09,28.60
2009,06,01,16,10,28.60
2009,06,01,16,11,28.60
2009,06,01,16,12,28.60
2009,06,01,16,13,28.50
2009,06,01,16,14,28.40
2009,06,01,16,15,28.30
2009,06,01,16,16,28.30
2009,06,01,16,17,28.20
2009,06,01,16,18,28.10
2009,06,01,16,19,28.00
2009,06,01,16,20,28.00
2009,06,01,16,21,28.00
2009,06,01,16,22,28.00
2009,06,01,16,23,28.10
2009,06,01,16,24,28.10
2009,06,01,16,25,28.00
2009,06,01,16,26,28.00
2009,06,01,16,27,28.10
2009,06,01,16,28,28.10
2009,06,01,16,29,28.10
2009,06,01,16,30,28.20
2009,06,01,16,31,28.20
2009,06,01,16,32,28.20
2009,06,01,16,33,28.30
2009,06,01,16,34,28.30
2009,06,01,16,35,28.20
2009,06,01,16,36,28.30
2009,06,01,16,37,28.30
2009,06,01,16,38,28.30
2009,06,01,16,39,28.30
2009,06,01,16,40,28.30
2009,06,01,16,41,28.40
2009,06,01,16,42,28.40
2009,06,01,16,43,28.30
2009,06,01,16,44,28.30
2009,06,01,16,45,28.30
2009,06,01,16,46,28.20
2009,06,01,16,47,28.20
2009,06,01,16,48,28.20
2009,06,01,16,49,28.10
2009,06,01,16,50,28.00
2009,06,01,16,51,28.00
2009,06,01,16,52,28.00
2009,06,01,16,53,28.00
2009,06,01,16,54,28.00
2009,06,01,16,55,27.90
2009,06,01,16,56,27.90
2009,06,01,16,57,27.90
2009,06,01,16,58,27.90
2009,06,01,16,59,28.00
2009,06,01,17,00,28.00
2009,06,01,17,01,28.00
2009,06,01,17,02,28.00
2009,06,01,17,03,27.90
2009,06,01,17,04,27.80
2009,06,01,17,05,27.80
2009,06,01,17,06,27.70
2009,06,01,17,07,27.70
2009,06,01,17,08,27.80
2009,06,01,17,09,27.80
2009,06,01,17,10,27.80
2009,06,01,17,11,27.90
2009,06,01,17,12,27.90
2009,06,01,17,13,27.90
2009,06,01,17,14,27.80
2009,06,01,17,15,27.80
2009,06,01,17,16,27.80
2009,06,01,17,17,27.80
2009,06,01,17,18,27.80
2009,06,01,17,19,27.80